Regional Weather Roundup
Issued by NWS

Home | Current Version | Previous Version | Graphics & Text | Print | Product List | Glossary Off
Versions: 1 2 3 4 5 6 7 8 9 10 11 12 13 14 15 16 17 18 19 20 21 22 23 24 25 26 27 28 29 30 31 32 33 34 35 36 37 38 39 40 41 42 43 44 45 46 47 48 49 50

000
ASUS43 KDTX 211310
RWRMI
MICHIGAN HOURLY REGIONAL WEATHER ROUNDUP
NATIONAL WEATHER SERVICE DETROIT/PONTIAC MI
800 AM EST SUN DEC 21 2014

NOTE: "FAIR" INDICATES FEW OR NO CLOUDS BELOW 12,000 FEET WITH NO
SIGNIFICANT WEATHER AND/OR OBSTRUCTION TO VISIBILITY.

MIZ047>049-052>055-059>063-066>070-074>076-081>083-211400-
SOUTHEAST LOWER MICHIGAN

CITY           SKY/WX    TMP DP  RH WIND       PRES   REMARKS
ADRIAN         CLOUDY    27  23  85 CALM      30.30F
ALMA           CLOUDY    29  28  93 S5        30.27S FOG
ANN ARBOR      CLOUDY    26  24  92 CALM      30.30R FOG
BAD AXE        CLOUDY    24  23  97 CALM      30.30S
DETROIT CITY   PTCLDY    25  19  78 CALM      30.32R
DETROIT        MOCLDY    28  23  81 CALM      30.32S HAZE
FLINT          CLOUDY    29  24  82 S3        30.29S
GROSSE ILE     PTCLDY    27  23  86 CALM      30.31R FOG
HILLSDALE      CLOUDY    29  28  96 CALM      30.26F FOG
HOWELL         CLOUDY    28  24  86 CALM      30.27F

CITY           SKY/WX    TMP DP  RH WIND       PRES   REMARKS
JACKSON        CLOUDY    29  25  85 S3        30.27F FOG
LAMBERTVILLE   CLOUDY    23  21  93 CALM      30.32S FOG
LANSING        CLOUDY    29  25  85 S6        30.28S FOG
LAPEER         NOT AVBL
MASON          CLOUDY    28  25  88 S5        30.27F FOG
MONROE         PTCLDY    21  21 100 CALM      30.31R FOG
MT. CLEMENS    PTCLDY    22  22  99 CALM      30.29S FOG
PONTIAC        CLOUDY    27  23  85 S3        30.28S
PORT HOPE        N/A     24  20  84 CALM      30.28S
PORT HURON     CLEAR     19  19 100 CALM      30.32R FOG
TRI CITIES     CLOUDY    30  24  78 S6        30.28S
YPSILANTI      CLOUDY    29  24  82 CALM      30.31S HAZE
$$
MIZ043>046-050>051-056>058-064>065-071>073-077>080-211400-
SOUTHWEST LOWER MICHIGAN

CITY           SKY/WX    TMP DP  RH WIND       PRES   REMARKS
BATTLE CREEK   CLOUDY    30  26  85 S8        30.26F FOG
BENTON HARBOR  CLOUDY    31  26  82 S8        30.25S
BIG RAPIDS     CLOUDY    30  30 100 S7        30.21S FOG
COLDWATER      CLOUDY    30  28  93 MISG      30.27S FOG
HOLLAND        CLOUDY    32  26  78 SE8       30.25S
GRAND RAPIDS   CLOUDY    30  26  85 S7        30.25S FOG
KALAMAZOO      CLOUDY    30  26  85 VRB6      30.26F FOG
MARSHALL       CLOUDY    28  27  93 CALM      30.26F FOG
MUSKEGON       CLOUDY    33  29  85 SE9       30.23S
$$
MIZ016>042-211400-
NORTHERN LOWER MICHIGAN

CITY           SKY/WX    TMP DP  RH WIND       PRES   REMARKS
ALPENA         CLOUDY    23  21  92 SE7       30.26F
BEAVER ISLAND  CLOUDY    32  28  84 SE5       30.19F
BELLAIRE       CLOUDY    28  26  89 CALM      30.22S
CADILLAC       CLOUDY    28  27  96 SE5       30.19R FOG
CHARLEVOIX     CLOUDY    28  25  89 SE7       30.23S
FRANKFORT      CLOUDY    31  29  94 SE6       30.20R FOG
GAYLORD        CLOUDY    22  21  96 SE6       30.19S
GRAYLING       CLOUDY    27  27  97 S5        30.21S FOG
HARBOR SPRINGS CLOUDY    25  21  84 NE5       30.22S
HOUGHTON LAKE  CLOUDY    26  24  92 SE6       30.22S FOG
MANISTEE       CLOUDY    30  27  86 SE6       30.21S
OSCODA         CLOUDY    23  22  95 CALM      30.27F
PELLSTON       CLOUDY    24  21  88 SE5       30.22S
TRAVERSE CITY  CLOUDY    30  26  85 SE5       30.20S
$$
MIZ007>008-015-211400-
EASTERN UPPER MICHIGAN

CITY           SKY/WX    TMP DP  RH WIND       PRES   REMARKS
KINROSS        CLOUDY    25  23  93 SE7       30.21S
MACKINAC ISLAN CLOUDY    28  22  80 SE8       30.21F
NEWBERRY       CLOUDY    27  26  98 SE9       30.18S
S. S. MARIE    CLOUDY    25  21  85 E5        30.25R
$$
MIZ004>006-011>014-085-211400-
CENTRAL UPPER MICHIGAN

CITY           SKY/WX    TMP DP  RH WIND       PRES   REMARKS
MANISTIQUE     CLOUDY    32  32  99 SE7       30.17S
ESCANABA       CLOUDY    27  25  93 CALM      30.15S
MENOMINEE      CLOUDY    30  27  86 S6        30.14F
SAWYER-GWINN   CLOUDY    27  23  86 S9        30.09F FOG
$$
MIZ001>003-009>011-084-211400-
WESTERN UPPER MICHIGAN

CITY           SKY/WX    TMP DP  RH WIND       PRES   REMARKS
IRON MOUNTAIN  CLOUDY    27  24  89 SE8       30.08F FOG
HOUGHTON       CLOUDY    28  24  85 S6        30.04F
COPPER HARBOR    N/A     34  26  72 SW5       30.06F
IRONWOOD       CLOUDY    30  25  80 S8        29.96F
$$

ABBREVIATIONS USED IN REMARKS
   TC - TEMPERATURE IN CELSIUS
  WCI - WIND CHILL INDEX
   HX - HEAT INDEX
  VSB - VISIBILITY



USA.gov is the U.S. government's official web portal to all federal, state and local government web resources and services.